This is the latest recevied weather packets stored in our database for station/object OK2ILA-6. If no packets are shown the sender has not sent any weather packets the latest 10 day(s).
| Time | Temp. | Humidity | Pressure | Rain* | Wind** | Luminosity | Snow |
|---|---|---|---|---|---|---|---|
| 1777840203 | 15° C | 48% | 1015.2 hPa | - | - | - | - |
| 1777839603 | 15° C | 47% | 1015.2 hPa | - | - | - | - |
| 1777839003 | 15.56° C | 48% | 1015.3 hPa | - | - | - | - |
| 1777838403 | 15.56° C | 46% | 1015.2 hPa | - | - | - | - |
| 1777837802 | 15.56° C | 46% | 1015.4 hPa | - | - | - | - |
| 1777837203 | 15.56° C | 46% | 1015.4 hPa | - | - | - | - |
| 1777836603 | 15.56° C | 44% | 1015.2 hPa | - | - | - | - |
| 1777836003 | 15.56° C | 47% | 1015.3 hPa | - | - | - | - |
| 1777835402 | 16.11° C | 46% | 1015.4 hPa | - | - | - | - |
| 1777834802 | 16.67° C | 44% | 1015.3 hPa | - | - | - | - |
| 1777834203 | 16.67° C | 47% | 1015.2 hPa | - | - | - | - |
| 1777833603 | 16.67° C | 46% | 1015.2 hPa | - | - | - | - |
| 1777832402 | 18.33° C | 44% | 1014.8 hPa | - | - | - | - |
| 1777831803 | 18.89° C | 42% | 1014.8 hPa | - | - | - | - |
| 1777831203 | 18.89° C | 42% | 1014.9 hPa | - | - | - | - |
| 1777830603 | 20° C | 40% | 1014.8 hPa | - | - | - | - |
| 1777830002 | 20° C | 38% | 1014.6 hPa | - | - | - | - |
| 1777829402 | 20.56° C | 38% | 1014.8 hPa | - | - | - | - |
| 1777828803 | 21.11° C | 37% | 1014.7 hPa | - | - | - | - |
| 1777828203 | 21.67° C | 36% | 1014.6 hPa | - | - | - | - |
| 1777827603 | 22.22° C | 36% | 1014.8 hPa | - | - | - | - |
| 1777827002 | 22.22° C | 36% | 1014.6 hPa | - | - | - | - |
| 1777826402 | 23.33° C | 34% | 1014.6 hPa | - | - | - | - |
| 1777825803 | 23.33° C | 34% | 1014.6 hPa | - | - | - | - |
| 1777825203 | 23.33° C | 36% | 1014.6 hPa | - | - | - | - |
* Rain since midnight (hover to see other rain measurements)
** Current wind speed in m/s (hover to see current wind gust speed)